This is the latest recevied weather packets stored in our database for station/object DN9EM-1. If no packets are shown the sender has not sent any weather packets the latest 10 day(s).
| Time | Temp. | Humidity | Pressure | Rain* | Wind** | Luminosity | Snow |
|---|---|---|---|---|---|---|---|
| 1777210265 | 15° C | 42% | 1027.1 hPa | 0 mm | - | - | - |
| 1777209663 | 15.56° C | 41% | 1027.2 hPa | 0 mm | - | - | - |
| 1777209060 | 15° C | 41% | 1027.2 hPa | 0 mm | - | - | - |
| 1777208460 | 15.56° C | 41% | 1027.2 hPa | 0 mm | - | - | - |
| 1777207855 | 15° C | 41% | 1027.4 hPa | 0 mm | - | - | - |
| 1777207252 | 13.89° C | 40% | 1027.4 hPa | 0 mm | - | - | - |
| 1777206650 | 14.44° C | 39% | 1027.6 hPa | 0 mm | - | - | - |
| 1777206047 | 14.44° C | 38% | 1027.5 hPa | 0 mm | - | - | - |
| 1777205444 | 14.44° C | 37% | 1027.5 hPa | 0 mm | - | - | - |
| 1777204842 | 15° C | 37% | 1027.6 hPa | 0 mm | - | - | - |
| 1777204239 | 15° C | 38% | 1027.6 hPa | 0 mm | - | - | - |
| 1777203637 | 15.56° C | 38% | 1027.6 hPa | 0 mm | - | - | - |
| 1777203034 | 15.56° C | 39% | 1027.7 hPa | 0 mm | - | - | - |
| 1777202432 | 15.56° C | 39% | 1027.6 hPa | 0 mm | - | - | - |
| 1777201829 | 16.11° C | 38% | 1027.7 hPa | 0 mm | - | - | - |
| 1777201226 | 15.56° C | 37% | 1027.7 hPa | 0 mm | - | - | - |
| 1777200624 | 15° C | 38% | 1027.8 hPa | 0 mm | - | - | - |
| 1777200021 | 15.56° C | 38% | 1027.8 hPa | 0 mm | - | - | - |
| 1777199419 | 15° C | 40% | 1027.6 hPa | 0 mm | - | - | - |
| 1777198816 | 15° C | 39% | 1027.7 hPa | 0 mm | - | - | - |
| 1777198274 | 14.44° C | 39% | 1027.7 hPa | 0 mm | - | - | - |
| 1777197671 | 14.44° C | 42% | 1027.8 hPa | 0 mm | - | - | - |
| 1777197069 | 15° C | 40% | 1027.7 hPa | 0 mm | - | - | - |
| 1777196466 | 15° C | 42% | 1027.8 hPa | 0 mm | - | - | - |
| 1777195863 | 15° C | 40% | 1027.9 hPa | 0 mm | - | - | - |
* Rain latest hour (hover to see other rain measurements)
** Current wind speed in m/s (hover to see current wind gust speed)